Tracking 33485 objects as of 15-Mar-2026
HD Live streaming from Space Station
objects crossing your sky now

KUIPER-00154

Track KUIPER-00154 now!
10-day predictions
KUIPER-00154 is classified as:


NORAD ID: 65969
Int'l Code: 2025-228Y
Perigee: 636.2 km
Apogee: 637.3 km
Inclination: 51.9 °
Period: 97.3 minutes
Semi major axis: 7007 km
RCS: Unknown
Launch date: October 14, 2025
Source: United States (US)
Launch site: AIR FORCE EASTERN TEST RANGE (AFETR)
Your satellite tracking list
Your tracking list is empty




NASA's NSSDC Master Catalog

Two Line Element Set (TLE):
1 65969U 25228Y   26073.92199842  .00004205  00000-0  58037-3 0  9993
2 65969  51.9003 312.4709 0000787 111.0943 249.0104 14.79920014 24353
Source of the keplerian elements: AFSPC